{"data":{"norad_id":61251,"epoch":"2026-05-24T23:22:42.744576Z","epoch_age_seconds":70522,"freshness":"FRESH","line1":"1 61251U 24175J   26144.97410584  .00000971  00000+0  12874-4 0  9991","line2":"2 61251  53.1591  40.5140 0000803  83.6633 276.4476 15.69705825 95340","mean_motion":15.69705825,"eccentricity":8.03e-5,"inclination_deg":53.1591,"raan_deg":40.514,"arg_perigee_deg":83.6633,"mean_anomaly_deg":276.4476,"bstar":1.2874e-5,"rev_number":9534,"period_min":91.736934211861,"perigee_km":359.19764627963,"apogee_km":360.27974911668,"semimajor_km":6737.8756976982,"source":"CELESTRAK","updated_at":"2026-05-25T13:38:19.365310Z"}}